TimeCDT,TemperatureF,Dew PointF,Humidity,Sea Level PressureIn,VisibilityMPH,Wind Direction,Wind SpeedMPH,Gust SpeedMPH,PrecipitationIn,Events,Conditions,WindDirDegrees,DateUTC
12:53 AM,35.1,28.9,78,29.87,10.0,Variable,5.8,-,N/A,,Overcast,0,2013-03-11 05:53:00
1:10 AM,33.8,28.4,81,29.86,10.0,West,9.2,20.7,N/A,,Overcast,280,2013-03-11 06:10:00
1:53 AM,33.1,28.0,82,29.88,10.0,Variable,6.9,19.6,N/A,,Overcast,0,2013-03-11 06:53:00
2:15 AM,33.8,28.4,81,29.87,10.0,Variable,5.8,-,N/A,,Overcast,0,2013-03-11 07:15:00
2:53 AM,32.0,28.0,85,29.86,8.0,West,6.9,-,N/A,,Overcast,280,2013-03-11 07:53:00
3:53 AM,32.0,28.0,85,29.89,6.0,West,6.9,-,0.00,,Overcast,270,2013-03-11 08:53:00
3:59 AM,30.2,28.4,93,29.88,4.0,Variable,4.6,-,0.00,Rain,Light Freezing Rain,0,2013-03-11 08:59:00
4:07 AM,30.2,28.4,93,29.88,4.0,West,9.2,-,0.00,Rain,Light Freezing Rain,270,2013-03-11 09:07:00
4:46 AM,30.2,28.4,93,29.87,9.0,West,9.2,18.4,0.01,,Overcast,280,2013-03-11 09:46:00
4:53 AM,30.9,28.0,89,29.87,9.0,Variable,4.6,-,0.01,,Overcast,0,2013-03-11 09:53:00
5:04 AM,30.2,28.4,93,29.86,9.0,West,4.6,-,N/A,,Overcast,260,2013-03-11 10:04:00
5:53 AM,30.0,27.0,88,29.88,10.0,Variable,5.8,21.9,N/A,,Overcast,0,2013-03-11 10:53:00
6:04 AM,30.2,26.6,86,29.87,10.0,WNW,11.5,19.6,N/A,,Overcast,290,2013-03-11 11:04:00
6:53 AM,30.0,26.1,85,29.89,10.0,WNW,8.1,19.6,N/A,,Overcast,290,2013-03-11 11:53:00
7:09 AM,30.2,26.6,86,29.87,10.0,Variable,6.9,-,N/A,,Overcast,0,2013-03-11 12:09:00
7:53 AM,30.0,25.0,82,29.89,9.0,Variable,3.5,-,N/A,,Overcast,0,2013-03-11 12:53:00
8:08 AM,30.2,24.8,80,29.88,8.0,Variable,6.9,-,N/A,,Overcast,0,2013-03-11 13:08:00
8:53 AM,30.9,24.1,76,29.91,8.0,WNW,10.4,17.3,N/A,,Overcast,300,2013-03-11 13:53:00
9:53 AM,32.0,25.0,75,29.93,9.0,WNW,10.4,23.0,N/A,,Overcast,300,2013-03-11 14:53:00
10:53 AM,34.0,25.0,70,29.94,9.0,West,8.1,-,N/A,,Overcast,280,2013-03-11 15:53:00
11:53 AM,33.1,24.1,70,29.95,9.0,WNW,10.4,19.6,N/A,,Overcast,300,2013-03-11 16:53:00
12:53 PM,36.0,25.0,64,29.94,10.0,West,8.1,16.1,N/A,,Overcast,280,2013-03-11 17:53:00
1:53 PM,39.0,26.1,60,29.93,10.0,WNW,8.1,17.3,N/A,,Mostly Cloudy,300,2013-03-11 18:53:00
2:08 PM,39.2,24.8,56,29.92,10.0,West,12.7,18.4,N/A,,Scattered Clouds,270,2013-03-11 19:08:00
2:53 PM,39.9,25.0,55,29.93,10.0,WNW,10.4,18.4,N/A,,Overcast,290,2013-03-11 19:53:00
3:53 PM,43.0,26.1,51,29.93,10.0,WNW,8.1,17.3,N/A,,Partly Cloudy,300,2013-03-11 20:53:00
4:53 PM,44.1,25.0,47,29.93,10.0,WNW,8.1,-,N/A,,Clear,290,2013-03-11 21:53:00
6:53 PM,43.0,21.9,43,29.95,10.0,Variable,5.8,-,N/A,,Clear,0,2013-03-11 23:53:00
7:53 PM,39.9,23.0,51,29.96,10.0,Calm,Calm,-,N/A,,Clear,0,2013-03-12 00:53:00
8:53 PM,39.0,21.9,50,29.99,10.0,Variable,3.5,-,N/A,,Clear,0,2013-03-12 01:53:00
9:53 PM,37.9,23.0,55,30.00,10.0,Calm,Calm,-,N/A,,Clear,0,2013-03-12 02:53:00
10:53 PM,37.0,23.0,57,30.04,10.0,Calm,Calm,-,N/A,,Clear,0,2013-03-12 03:53:00
11:53 PM,36.0,23.0,59,30.05,10.0,Calm,Calm,-,N/A,,Clear,0,2013-03-12 04:53:00